Location: ??
(31.9467°N, 34.8903°E)
Time: 19:44:19
(UTC+00:00)

X-37B - Visible Passes

Search period start: 22 January 2021 00:00
Search period end: 01 February 2021 00:00
Orbit: 385 x 390 km, 45.0° (Epoch: 20 January)

Date Brightness Start Highest point End Pass type
(mag) Time Alt. Az. Time Alt. Az. Time Alt. Az.
22 Jan 3.0 15:39:04 10° WNW 15:40:58 15° NNW 15:42:53 10° NNE visible
28 Jan 2.9 16:17:50 10° NNW 16:19:17 13° NNE 16:19:17 13° NNE visible
29 Jan 3.0 16:55:10 10° NW 16:56:10 17° NNW 16:56:10 17° NNW visible
30 Jan 2.3 15:57:10 10° NNW 15:59:32 19° NNE 16:00:52 15° NE visible
31 Jan 0.5 16:34:52 10° NW 16:38:01 64° NE 16:38:03 64° NE visible
